,,Stat6,,Stat2,,Stat8,,Stat9,,Stat10,,Wind1,,Wind1,
time,status,PA1M_AVG,status,PR1M_SUM,status,RH1M_AVG,status,SR1M_AVG,status,TA1M_AVG,status,W1dAve1m,status,W1sAve1m,
2007-05-10, 00:00:00,VALID,918.658,VALID,0,VALID,100,VALID,0.0169808,VALID,19.9581,VALID,38,VALID,0.247024,
2007-05-10, 00:01:00,VALID,918.659,VALID,0,VALID,100,VALID,0,VALID,19.9646,VALID,38,VALID,0,
2007-05-10, 00:02:00,VALID,918.652,VALID,0,VALID,100,VALID,0,VALID,19.9803,VALID,38,VALID,0,
2007-05-10, 00:03:00,VALID,918.632,VALID,0,VALID,100,VALID,-0.0169808,VALID,20.023,VALID,38,VALID,0,
2007-05-10, 00:04:00,VALID,918.621,VALID,0,VALID,100,VALID,-0.0169808,VALID,20.049,VALID,38,VALID,0.0963542,
2007-05-10, 00:05:00,VALID,918.609,VALID,0,VALID,100,VALID,0,VALID,20.0585,VALID,38,VALID,0.334339,
2007-05-10, 00:06:00,VALID,918.589,VALID,0,VALID,100,VALID,0,VALID,20.052,VALID,38,VALID,0.576637,
2007-05-10, 00:07:00,VALID,918.581,VALID,0,VALID,100,VALID,-0.0169808,VALID,20.0817,VALID,37,VALID,0.768169,
2007-05-10, 00:08:00,VALID,918.578,VALID,0,VALID,100,VALID,0,VALID,20.0884,VALID,37,VALID,0.640625,
2007-05-10, 00:09:00,VALID,918.587,VALID,0,VALID,100,VALID,0,VALID,20.0817,VALID,32,VALID,0.451308,
2007-05-10, 00:10:00,VALID,918.594,VALID,0,VALID,100,VALID,0,VALID,20.0849,VALID,31,VALID,0.442472,
2007-05-10, 00:11:00,VALID,918.598,VALID,0,VALID,100,VALID,-0.0169808,VALID,20.0814,VALID,31,VALID,0.383384,
2007-05-10, 00:12:00,VALID,918.598,VALID,0,VALID,100,VALID,-0.0339617,VALID,20.0779,VALID,31,VALID,0.503049,
2007-05-10, 00:13:00,VALID,918.607,VALID,0,VALID,100,VALID,0,VALID,20.0752,VALID,31,VALID,0.482617,
2007-05-10, 00:14:00,VALID,918.602,VALID,0,VALID,100,VALID,0,VALID,20.0617,VALID,26,VALID,0.640625,
2007-05-10, 00:15:00,VALID,918.608,VALID,0,VALID,100,VALID,0.0169808,VALID,20.0587,VALID,21,VALID,0.57279,
2007-05-10, 00:16:00,VALID,918.605,VALID,0,VALID,100,VALID,0,VALID,20.0657,VALID,358,VALID,0.847565,
2007-05-10, 00:17:00,VALID,918.604,VALID,0,VALID,100,VALID,0,VALID,20.0585,VALID,309,VALID,0.653516,
2007-05-10, 00:18:00,VALID,918.601,VALID,0,VALID,100,VALID,-0.0169808,VALID,20.0976,VALID,277,VALID,0.337652,
2007-05-10, 00:19:00,VALID,918.586,VALID,0,VALID,100,VALID,0,VALID,20.1228,VALID,277,VALID,0.234756,
2007-05-10, 00:20:00,VALID,918.577,VALID,0,VALID,100,VALID,0.0339617,VALID,20.1628,VALID,277,VALID,0.15,
2007-05-10, 00:21:00,VALID,918.55,VALID,0,VALID,100,VALID,0,VALID,20.1723,VALID,277,VALID,0.163881,
2007-05-10, 00:22:00,VALID,918.538,VALID,0,VALID,100,VALID,0,VALID,20.1755,VALID,277,VALID,0.284884,
2007-05-10, 00:23:00,VALID,918.519,VALID,0,VALID,100,VALID,0,VALID,20.1431,VALID,293,VALID,0.59484,
2007-05-10, 00:24:00,VALID,918.503,VALID,0,VALID,100,VALID,0,VALID,20.1074,VALID,326,VALID,0.313953,
2007-05-10, 00:25:00,VALID,918.482,VALID,0,VALID,100,VALID,0,VALID,20.1171,VALID,328,VALID,0.180778,
2007-05-10, 00:26:00,VALID,918.472,VALID,0,VALID,100,VALID,0,VALID,20.1371,VALID,328,VALID,0.0985137,
2007-05-10, 00:27:00,VALID,918.445,VALID,0,VALID,100,VALID,0,VALID,20.1204,VALID,328,VALID,0.0236235,
2007-05-10, 00:28:00,VALID,918.434,VALID,0,VALID,100,VALID,-0.0169808,VALID,20.1241,VALID,328,VALID,0.127344,
2007-05-10, 00:29:00,VALID,918.431,VALID,0,VALID,100,VALID,-0.0339617,VALID,20.1336,VALID,328,VALID,0.154615,
2007-05-10, 00:30:00,VALID,918.423,VALID,0,VALID,100,VALID,0,VALID,20.1309,VALID,328,VALID,0.340799,
2007-05-10, 00:31:00,VALID,918.413,VALID,0,VALID,100,VALID,-0.0169808,VALID,20.1011,VALID,329,VALID,0.49907,
2007-05-10, 00:32:00,VALID,918.414,VALID,0,VALID,100,VALID,-0.0169808,VALID,20.0757,VALID,330,VALID,0.401953,
2007-05-10, 00:33:00,VALID,918.402,VALID,0,VALID,100,VALID,-0.0169808,VALID,20.0168,VALID,333,VALID,0.478338,
2007-05-10, 00:34:00,VALID,918.381,VALID,0,VALID,99.9491,VALID,-0.0169808,VALID,20.0138,VALID,338,VALID,0.324033,
2007-05-10, 00:35:00,VALID,918.374,VALID,0,VALID,99.8527,VALID,-0.0169808,VALID,20.0133,VALID,338,VALID,0.403582,
2007-05-10, 00:36:00,VALID,918.349,VALID,0,VALID,99.6035,VALID,-0.0169808,VALID,20.0205,VALID,5,VALID,0.524346,
2007-05-10, 00:37:00,VALID,918.337,VALID,0,VALID,99.3873,VALID,-0.0339617,VALID,20.0303,VALID,70,VALID,0.657986,
2007-05-10, 00:38:00,VALID,918.313,VALID,0,VALID,99.1724,VALID,0,VALID,20.0295,VALID,71,VALID,0.621466,
2007-05-10, 00:39:00,VALID,918.297,VALID,0,VALID,99.0148,VALID,0,VALID,20.02,VALID,86,VALID,0.680575,
2007-05-10, 00:40:00,VALID,918.299,VALID,0,VALID,98.9817,VALID,-0.0169808,VALID,19.9941,VALID,91,VALID,0.55163,
2007-05-10, 00:41:00,VALID,918.284,VALID,0,VALID,99.0046,VALID,-0.0169808,VALID,19.9781,VALID,91,VALID,0.538175,
2007-05-10, 00:42:00,VALID,918.282,VALID,0,VALID,98.9525,VALID,-0.0339617,VALID,19.9521,VALID,94,VALID,0.619606,
2007-05-10, 00:43:00,VALID,918.268,VALID,0,VALID,98.9537,VALID,0,VALID,19.9297,VALID,107,VALID,0.708984,
2007-05-10, 00:44:00,VALID,918.251,VALID,0,VALID,98.969,VALID,-0.0339617,VALID,19.9199,VALID,114,VALID,0.893043,
2007-05-10, 00:45:00,VALID,918.234,VALID,0,VALID,99.264,VALID,0,VALID,19.9097,VALID,121,VALID,0.971354,
2007-05-10, 00:46:00,VALID,918.218,VALID,0,VALID,99.4853,VALID,0,VALID,19.9025,VALID,127,VALID,0.816501,
2007-05-10, 00:47:00,VALID,918.212,VALID,0,VALID,99.6709,VALID,0.0169808,VALID,19.91,VALID,130,VALID,0.5875,
2007-05-10, 00:48:00,VALID,918.21,VALID,0,VALID,99.8197,VALID,0,VALID,19.897,VALID,130,VALID,0.1875,
2007-05-10, 00:49:00,VALID,918.197,VALID,0,VALID,99.9405,VALID,0,VALID,19.88,VALID,130,VALID,0.275112,
2007-05-10, 00:50:00,VALID,918.188,VALID,0,VALID,100,VALID,0,VALID,19.87,VALID,130,VALID,0.46875,
2007-05-10, 00:51:00,VALID,918.176,VALID,0,VALID,100,VALID,0.0169808,VALID,19.858,VALID,130,VALID,0.26617,
2007-05-10, 00:52:00,VALID,918.169,VALID,0,VALID,99.9878,VALID,-0.0339617,VALID,19.8481,VALID,130,VALID,0,
2007-05-10, 00:53:00,VALID,918.172,VALID,0,VALID,99.8934,VALID,0,VALID,19.8378,VALID,130,VALID,0,
2007-05-10, 00:54:01,VALID,918.157,VALID,0,VALID,99.9189,VALID,0,VALID,19.8608,VALID,130,VALID,0,
2007-05-10, 00:55:00,VALID,918.151,VALID,0,VALID,100,VALID,0,VALID,19.8803,VALID,130,VALID,0,
2007-05-10, 00:56:00,VALID,918.134,VALID,0,VALID,100,VALID,0.0169808,VALID,19.8965,VALID,130,VALID,0,
2007-05-10, 00:57:01,VALID,918.128,VALID,0,VALID,100,VALID,-0.0169808,VALID,19.9197,VALID,130,VALID,0.0186435,
2007-05-10, 00:58:00,VALID,918.112,VALID,0,VALID,99.9878,VALID,0,VALID,19.9227,VALID,130,VALID,0,
2007-05-10, 00:59:01,VALID,918.104,VALID,0,VALID,99.8375,VALID,-0.0169808,VALID,19.9127,VALID,130,VALID,0,
2007-05-10, 01:00:01,VALID,918.108,VALID,0,VALID,99.7993,VALID,0,VALID,19.9227,VALID,130,VALID,0,
2007-05-10, 01:01:01,VALID,918.092,VALID,0,VALID,99.8756,VALID,0.0169808,VALID,19.9354,VALID,130,VALID,0,
2007-05-10, 01:02:00,VALID,918.087,VALID,0,VALID,99.9504,VALID,0,VALID,19.9349,VALID,130,VALID,0,
2007-05-10, 01:03:00,VALID,918.063,VALID,0,VALID,99.999,VALID,0,VALID,19.9454,VALID,130,VALID,0,
2007-05-10, 01:04:01,VALID,918.046,VALID,0,VALID,99.9883,VALID,-0.0169808,VALID,19.9284,VALID,130,VALID,0,
2007-05-10, 01:05:00,VALID,918.026,VALID,0,VALID,99.9954,VALID,0.0339617,VALID,19.9087,VALID,130,VALID,0,
2007-05-10, 01:06:00,VALID,917.999,VALID,0,VALID,100,VALID,0.0169808,VALID,19.9055,VALID,130,VALID,0,
2007-05-10, 01:07:00,VALID,917.992,VALID,0,VALID,100,VALID,-0.0169808,VALID,19.9032,VALID,130,VALID,0,
2007-05-10, 01:08:01,VALID,917.982,VALID,0,VALID,100,VALID,-0.0169808,VALID,19.8765,VALID,130,VALID,0,
2007-05-10, 01:09:00,VALID,917.983,VALID,0,VALID,100,VALID,-0.0339617,VALID,19.8835,VALID,130,VALID,0.129102,
2007-05-10, 01:10:00,VALID,917.987,VALID,0,VALID,99.8171,VALID,-0.0339617,VALID,19.8613,VALID,130,VALID,0.549538,
2007-05-10, 01:11:00,VALID,917.988,VALID,0,VALID,99.69,VALID,-0.0169808,VALID,19.8643,VALID,130,VALID,0.365327,
2007-05-10, 01:12:01,VALID,917.992,VALID,0,VALID,99.5806,VALID,-0.0339617,VALID,19.874,VALID,130,VALID,0.380469,
2007-05-10, 01:13:00,VALID,917.992,VALID,0,VALID,99.5374,VALID,-0.0169808,VALID,19.8875,VALID,132,VALID,0.322917,
2007-05-10, 01:14:00,VALID,917.988,VALID,0,VALID,99.5781,VALID,0.0339617,VALID,19.8787,VALID,129,VALID,0.238281,
2007-05-10, 01:15:00,VALID,917.977,VALID,0,VALID,99.6137,VALID,0.0509425,VALID,19.8925,VALID,128,VALID,0.0130208,
2007-05-10, 01:16:00,VALID,917.982,VALID,0,VALID,99.6747,VALID,0.0849042,VALID,19.8728,VALID,128,VALID,0.168679,
2007-05-10, 01:17:00,VALID,917.963,VALID,0,VALID,99.7688,VALID,0.101885,VALID,19.873,VALID,128,VALID,0.169336,
2007-05-10, 01:18:01,VALID,917.969,VALID,0,VALID,99.8553,VALID,0.0679233,VALID,19.8663,VALID,128,VALID,0.189503,
2007-05-10, 01:19:01,VALID,917.955,VALID,0,VALID,99.9062,VALID,0.0679233,VALID,19.857,VALID,128,VALID,0.207031,
2007-05-10, 01:20:01,VALID,917.942,VALID,0,VALID,99.9929,VALID,0.0849042,VALID,19.8406,VALID,128,VALID,0,
2007-05-10, 01:21:00,VALID,917.898,VALID,0,VALID,100,VALID,0.0679233,VALID,19.8403,VALID,128,VALID,0,
2007-05-10, 01:22:01,VALID,917.882,VALID,0,VALID,100,VALID,0.101885,VALID,19.8306,VALID,128,VALID,0,
2007-05-10, 01:23:01,VALID,917.872,VALID,0,VALID,100,VALID,0.0849042,VALID,19.8176,VALID,128,VALID,0,
2007-05-10, 01:24:00,VALID,917.867,VALID,0,VALID,100,VALID,0.0509425,VALID,19.8044,VALID,128,VALID,0.0345204,
2007-05-10, 01:25:01,VALID,917.872,VALID,0,VALID,100,VALID,0.118866,VALID,19.8011,VALID,128,VALID,0,
2007-05-10, 01:26:00,VALID,917.877,VALID,0,VALID,100,VALID,0.101885,VALID,19.7949,VALID,128,VALID,0,
2007-05-10, 01:27:00,VALID,917.863,VALID,0,VALID,100,VALID,0.0679233,VALID,19.7949,VALID,128,VALID,0.0122768,
2007-05-10, 01:28:00,VALID,917.863,VALID,0,VALID,100,VALID,0.0849042,VALID,19.7884,VALID,264,VALID,0.463356,
2007-05-10, 01:29:00,VALID,917.85,VALID,0,VALID,100,VALID,0.0169808,VALID,19.7792,VALID,308,VALID,0.361719,
2007-05-10, 01:30:00,VALID,917.848,VALID,0,VALID,100,VALID,0,VALID,19.76,VALID,332,VALID,0.425145,
2007-05-10, 01:31:00,VALID,917.831,VALID,0,VALID,100,VALID,-0.0339617,VALID,19.7347,VALID,358,VALID,0.759811,
2007-05-10, 01:32:00,VALID,917.821,VALID,0,VALID,100,VALID,-0.0339617,VALID,19.712,VALID,4,VALID,0.758203,
2007-05-10, 01:33:01,VALID,917.833,VALID,0,VALID,100,VALID,-0.0169808,VALID,19.6926,VALID,359,VALID,0.502486,
2007-05-10, 01:34:00,VALID,917.822,VALID,0,VALID,100,VALID,0,VALID,19.708,VALID,316,VALID,0.404978,
2007-05-10, 01:35:00,VALID,917.814,VALID,0,VALID,100,VALID,-0.0169808,VALID,19.7669,VALID,255,VALID,0.580035,
2007-05-10, 01:36:01,VALID,917.798,VALID,0,VALID,100,VALID,-0.0339617,VALID,19.7704,VALID,255,VALID,0.219965,
2007-05-10, 01:37:00,VALID,917.778,VALID,0,VALID,100,VALID,-0.0169808,VALID,19.751,VALID,255,VALID,0.0129523,
2007-05-10, 01:38:01,VALID,917.762,VALID,0,VALID,100,VALID,-0.0509425,VALID,19.7412,VALID,262,VALID,0.312145,
2007-05-10, 01:39:00,VALID,917.748,VALID,0,VALID,100,VALID,-0.0339617,VALID,19.7058,VALID,337,VALID,0.567472,
2007-05-10, 01:40:01,VALID,917.731,VALID,0,VALID,100,VALID,0,VALID,19.6758,VALID,10,VALID,0.764205,
2007-05-10, 01:41:01,VALID,917.706,VALID,0,VALID,100,VALID,0,VALID,19.6763,VALID,36,VALID,1.11113,
2007-05-10, 01:42:01,VALID,917.708,VALID,0,VALID,99.9486,VALID,-0.0339617,VALID,19.6669,VALID,36,VALID,1.01387,
2007-05-10, 01:43:01,VALID,917.699,VALID,0,VALID,99.7497,VALID,0,VALID,19.6594,VALID,25,VALID,0.617188,
2007-05-10, 01:44:01,VALID,917.706,VALID,0,VALID,99.6493,VALID,-0.0169808,VALID,19.6694,VALID,24,VALID,0.262784,
2007-05-10, 01:45:00,VALID,917.69,VALID,0,VALID,99.5234,VALID,-0.0509425,VALID,19.6733,VALID,17,VALID,0.422256,
2007-05-10, 01:46:00,VALID,917.668,VALID,0,VALID,99.4229,VALID,-0.0169808,VALID,19.6634,VALID,16,VALID,0.381392,
2007-05-10, 01:47:01,VALID,917.635,VALID,0,VALID,99.3734,VALID,-0.0169808,VALID,19.6798,VALID,16,VALID,0.587109,
2007-05-10, 01:48:01,VALID,917.623,VALID,0,VALID,99.2729,VALID,-0.0509425,VALID,19.6861,VALID,16,VALID,0.652876,
2007-05-10, 01:49:00,VALID,917.594,VALID,0,VALID,99.0148,VALID,-0.0169808,VALID,19.6831,VALID,13,VALID,0.743608,
2007-05-10, 01:50:01,VALID,917.581,VALID,0,VALID,98.8787,VALID,-0.0169808,VALID,19.6786,VALID,13,VALID,0.630327,
2007-05-10, 01:51:01,VALID,917.543,VALID,0,VALID,98.8494,VALID,-0.0169808,VALID,19.6818,VALID,13,VALID,0.586846,
2007-05-10, 01:52:00,VALID,917.513,VALID,0,VALID,98.6943,VALID,0,VALID,19.6821,VALID,16,VALID,0.695313,
2007-05-10, 01:53:01,VALID,917.492,VALID,0,VALID,98.6854,VALID,0,VALID,19.6893,VALID,26,VALID,0.579297,
2007-05-10, 01:54:01,VALID,917.486,VALID,0,VALID,98.6282,VALID,-0.0169808,VALID,19.6721,VALID,355,VALID,0.608132,
2007-05-10, 01:55:01,VALID,917.482,VALID,0,VALID,98.8469,VALID,-0.0169808,VALID,19.6923,VALID,279,VALID,0.682639,
2007-05-10, 01:56:01,VALID,917.464,VALID,0,VALID,99.3861,VALID,-0.0679233,VALID,19.7088,VALID,268,VALID,0.476758,
2007-05-10, 01:57:01,VALID,917.428,VALID,0,VALID,99.5908,VALID,-0.0169808,VALID,19.708,VALID,267,VALID,0.0513672,
2007-05-10, 01:58:01,VALID,917.411,VALID,0,VALID,99.7205,VALID,0,VALID,19.7213,VALID,349,VALID,0.773628,
2007-05-10, 01:59:00,VALID,917.392,VALID,0,VALID,99.5984,VALID,-0.0509425,VALID,19.6961,VALID,44,VALID,0.869978,
2007-05-10, 02:00:00,VALID,917.386,VALID,0,VALID,99.1648,VALID,0,VALID,19.6664,VALID,40,VALID,1.10919,
2007-05-10, 02:01:00,VALID,917.378,VALID,0,VALID,98.9181,VALID,0.0169808,VALID,19.6596,VALID,39,VALID,1.01749,
2007-05-10, 02:02:00,VALID,917.382,VALID,0,VALID,98.8634,VALID,0.0339617,VALID,19.6691,VALID,19,VALID,0.381882,
2007-05-10, 02:03:00,VALID,917.362,VALID,0,VALID,99.0364,VALID,0,VALID,19.6926,VALID,330,VALID,0.347284,
2007-05-10, 02:04:00,VALID,917.356,VALID,0,VALID,99.0491,VALID,0,VALID,19.6921,VALID,353,VALID,0.564732,
2007-05-10, 02:05:00,VALID,917.321,VALID,0,VALID,98.7223,VALID,0,VALID,19.7377,VALID,35,VALID,1.08802,
2007-05-10, 02:06:00,VALID,917.336,VALID,0,VALID,98.248,VALID,0,VALID,19.7637,VALID,35,VALID,1.508,
2007-05-10, 02:07:00,VALID,917.316,VALID,0,VALID,97.7126,VALID,0,VALID,19.8251,VALID,34,VALID,1.27448,
2007-05-10, 02:08:00,VALID,917.32,VALID,0,VALID,97.2282,VALID,0,VALID,19.9159,VALID,28,VALID,0.945845,
2007-05-10, 02:09:00,VALID,917.317,VALID,0,VALID,96.9179,VALID,0,VALID,19.9446,VALID,28,VALID,0.4913,
2007-05-10, 02:10:00,VALID,917.293,VALID,0,VALID,96.8047,VALID,0,VALID,19.9449,VALID,28,VALID,0.29306,
2007-05-10, 02:11:00,VALID,917.27,VALID,0,VALID,96.9001,VALID,0.0339617,VALID,19.9157,VALID,28,VALID,0.167629,
2007-05-10, 02:12:00,VALID,917.248,VALID,0,VALID,96.7984,VALID,0,VALID,19.8733,VALID,28,VALID,0.571039,
2007-05-10, 02:13:00,VALID,917.237,VALID,0,VALID,96.7882,VALID,0.0169808,VALID,19.887,VALID,28,VALID,0.572218,
2007-05-10, 02:14:00,VALID,917.225,VALID,0,VALID,96.7475,VALID,-0.0849042,VALID,19.8907,VALID,30,VALID,0.708576,
2007-05-10, 02:15:00,VALID,917.214,VALID,0,VALID,96.6051,VALID,-0.0509425,VALID,19.9427,VALID,34,VALID,0.397879,
2007-05-10, 02:16:00,VALID,917.19,VALID,0,VALID,96.4487,VALID,-0.0679233,VALID,20.0046,VALID,35,VALID,0.177827,
2007-05-10, 02:17:00,VALID,917.187,VALID,0,VALID,96.3902,VALID,-0.0509425,VALID,20.0205,VALID,47,VALID,0.669727,
2007-05-10, 02:18:00,VALID,917.198,VALID,0,VALID,96.3444,VALID,-0.0339617,VALID,20.0273,VALID,47,VALID,0.332589,
2007-05-10, 02:19:00,VALID,917.184,VALID,0,VALID,96.1689,VALID,-0.0679233,VALID,19.9881,VALID,43,VALID,0.468559,
2007-05-10, 02:20:00,VALID,917.167,VALID,0,VALID,96.0774,VALID,-0.0849042,VALID,19.9953,VALID,34,VALID,0.575581,
2007-05-10, 02:21:00,VALID,917.16,VALID,0,VALID,96.0812,VALID,-0.0849042,VALID,20.0308,VALID,34,VALID,0.193452,
2007-05-10, 02:22:00,VALID,917.149,VALID,0,VALID,96.1473,VALID,-0.101885,VALID,20.037,VALID,329,VALID,0.208212,
2007-05-10, 02:23:00,VALID,917.152,VALID,0,VALID,96.2668,VALID,-0.0339617,VALID,20.0273,VALID,235,VALID,0.288699,
2007-05-10, 02:24:00,VALID,917.126,VALID,0,VALID,96.3749,VALID,-0.0679233,VALID,20.0051,VALID,235,VALID,0.0995164,
2007-05-10, 02:25:00,VALID,917.106,VALID,0,VALID,96.5173,VALID,-0.101885,VALID,19.9856,VALID,235,VALID,0,
2007-05-10, 02:26:00,VALID,917.098,VALID,0,VALID,96.422,VALID,-0.101885,VALID,19.9724,VALID,235,VALID,0,
2007-05-10, 02:27:00,VALID,917.091,VALID,0,VALID,96.6559,VALID,-0.0849042,VALID,19.9786,VALID,235,VALID,0,
2007-05-10, 02:28:00,VALID,917.085,VALID,0,VALID,96.7119,VALID,-0.101885,VALID,19.9689,VALID,200,VALID,0.20206,
2007-05-10, 02:29:00,VALID,917.076,VALID,0,VALID,96.7182,VALID,-0.0169808,VALID,19.9384,VALID,59,VALID,0.62965,
2007-05-10, 02:30:00,VALID,917.075,VALID,0,VALID,96.7259,VALID,-0.0169808,VALID,19.9416,VALID,55,VALID,0.686914,
2007-05-10, 02:31:00,VALID,917.062,VALID,0,VALID,96.7017,VALID,0,VALID,19.9419,VALID,55,VALID,0.633168,
2007-05-10, 02:32:00,VALID,917.046,VALID,0,VALID,96.4677,VALID,0.0509425,VALID,19.9411,VALID,55,VALID,0.718192,
2007-05-10, 02:33:00,VALID,917.026,VALID,0,VALID,96.2986,VALID,0.0339617,VALID,19.9943,VALID,55,VALID,0.687318,
2007-05-10, 02:34:00,VALID,917.022,VALID,0,VALID,96.2147,VALID,0.0509425,VALID,19.9931,VALID,55,VALID,0.587139,
2007-05-10, 02:35:00,VALID,917.013,VALID,0,VALID,96.1689,VALID,0.0169808,VALID,20.0093,VALID,55,VALID,0.258903,
2007-05-10, 02:36:00,VALID,917,VALID,0,VALID,96.099,VALID,0.0509425,VALID,20.0128,VALID,55,VALID,0.0704942,
2007-05-10, 02:37:00,VALID,916.998,VALID,0,VALID,96.015,VALID,0.0339617,VALID,20.016,VALID,55,VALID,0,
2007-05-10, 02:38:00,VALID,916.995,VALID,0,VALID,96.085,VALID,0.0679233,VALID,20.0058,VALID,55,VALID,0.000545058,
2007-05-10, 02:39:00,VALID,916.992,VALID,0,VALID,96.2299,VALID,0.0169808,VALID,20.0063,VALID,95,VALID,0.321948,
2007-05-10, 02:40:00,VALID,916.975,VALID,0,VALID,96.6636,VALID,0.0509425,VALID,19.9868,VALID,157,VALID,0.906441,
2007-05-10, 02:41:00,VALID,916.983,VALID,0,VALID,97.1252,VALID,0,VALID,19.9549,VALID,153,VALID,0.893643,
2007-05-10, 02:42:00,VALID,916.979,VALID,0,VALID,97.5931,VALID,0.0169808,VALID,19.899,VALID,153,VALID,0.935865,
2007-05-10, 02:43:00,VALID,916.981,VALID,0,VALID,98.1106,VALID,0,VALID,19.8538,VALID,158,VALID,0.905859,
2007-05-10, 02:44:00,VALID,916.973,VALID,0,VALID,98.5608,VALID,-0.0169808,VALID,19.8221,VALID,161,VALID,0.901389,
2007-05-10, 02:45:00,VALID,916.973,VALID,0,VALID,99.0173,VALID,-0.0169808,VALID,19.7899,VALID,155,VALID,0.960337,
2007-05-10, 02:46:00,VALID,916.974,VALID,0,VALID,99.2742,VALID,-0.0339617,VALID,19.7605,VALID,149,VALID,0.625178,
2007-05-10, 02:47:00,VALID,916.966,VALID,0,VALID,99.3543,VALID,-0.0339617,VALID,19.7372,VALID,150,VALID,0.389583,
2007-05-10, 02:48:00,VALID,916.96,VALID,0,VALID,99.5603,VALID,-0.0679233,VALID,19.7477,VALID,150,VALID,0.0368304,
2007-05-10, 02:49:00,VALID,916.958,VALID,0,VALID,99.5654,VALID,-0.0339617,VALID,19.7442,VALID,150,VALID,0,
2007-05-10, 02:50:00,VALID,916.953,VALID,0,VALID,99.6544,VALID,-0.0339617,VALID,19.734,VALID,150,VALID,0,
2007-05-10, 02:51:00,VALID,916.952,VALID,0,VALID,99.7332,VALID,-0.0509425,VALID,19.7442,VALID,150,VALID,0,
2007-05-10, 02:52:00,VALID,916.932,VALID,0,VALID,99.7523,VALID,0,VALID,19.7405,VALID,150,VALID,0.179306,
2007-05-10, 02:53:00,VALID,916.917,VALID,0,VALID,99.8566,VALID,-0.0679233,VALID,19.731,VALID,150,VALID,0.101199,
2007-05-10, 02:54:00,VALID,916.904,VALID,0,VALID,99.9741,VALID,-0.0849042,VALID,19.7477,VALID,149,VALID,0.0633878,
2007-05-10, 02:55:00,VALID,916.903,VALID,0,VALID,100,VALID,0,VALID,19.754,VALID,149,VALID,0.0279297,
2007-05-10, 02:56:00,VALID,916.902,VALID,0,VALID,100,VALID,-0.0509425,VALID,19.7607,VALID,149,VALID,0.169207,
2007-05-10, 02:57:00,VALID,916.886,VALID,0,VALID,100,VALID,-0.0169808,VALID,19.7729,VALID,144,VALID,0.253906,
2007-05-10, 02:58:00,VALID,916.88,VALID,0,VALID,100,VALID,0,VALID,19.7727,VALID,138,VALID,0.397294,
2007-05-10, 02:59:00,VALID,916.866,VALID,0,VALID,100,VALID,0,VALID,19.7764,VALID,138,VALID,0.504192,
2007-05-10, 03:00:00,VALID,916.865,VALID,0,VALID,100,VALID,-0.0169808,VALID,19.7505,VALID,119,VALID,0.580433,
2007-05-10, 03:01:00,VALID,916.856,VALID,0,VALID,100,VALID,-0.0339617,VALID,19.7342,VALID,77,VALID,0.701705,
2007-05-10, 03:02:00,VALID,916.829,VALID,0,VALID,99.983,VALID,-0.0339617,VALID,19.7445,VALID,77,VALID,0.446501,
2007-05-10, 03:03:00,VALID,916.814,VALID,0,VALID,99.9125,VALID,-0.0339617,VALID,19.7959,VALID,77,VALID,0.220749,
2007-05-10, 03:04:00,VALID,916.806,VALID,0,VALID,99.8426,VALID,-0.0339617,VALID,19.8348,VALID,77,VALID,0,
2007-05-10, 03:05:00,VALID,916.781,VALID,0,VALID,99.512,VALID,-0.0509425,VALID,19.8381,VALID,77,VALID,0,
2007-05-10, 03:06:00,VALID,916.749,VALID,0,VALID,99.306,VALID,-0.0509425,VALID,19.8648,VALID,77,VALID,0,
2007-05-10, 03:07:00,VALID,916.737,VALID,0,VALID,99.2449,VALID,-0.0849042,VALID,19.881,VALID,77,VALID,0,
2007-05-10, 03:08:00,VALID,916.709,VALID,0,VALID,99.0974,VALID,-0.0849042,VALID,19.871,VALID,77,VALID,0,
2007-05-10, 03:09:00,VALID,916.694,VALID,0,VALID,99.0733,VALID,-0.0339617,VALID,19.8808,VALID,77,VALID,0,
2007-05-10, 03:10:00,VALID,916.681,VALID,0,VALID,99.0555,VALID,-0.0339617,VALID,19.8902,VALID,77,VALID,0,
2007-05-10, 03:11:00,VALID,916.684,VALID,0,VALID,99.0885,VALID,-0.0339617,VALID,19.8927,VALID,77,VALID,0,
2007-05-10, 03:12:00,VALID,916.666,VALID,0,VALID,99.0491,VALID,-0.0169808,VALID,19.9032,VALID,77,VALID,0,
2007-05-10, 03:13:00,VALID,916.653,VALID,0,VALID,99.222,VALID,-0.0509425,VALID,19.9257,VALID,77,VALID,0,
2007-05-10, 03:14:00,VALID,916.65,VALID,0,VALID,99.5081,VALID,-0.0509425,VALID,19.9649,VALID,77,VALID,0,
2007-05-10, 03:15:00,VALID,916.637,VALID,0,VALID,99.6836,VALID,-0.0339617,VALID,20.0003,VALID,77,VALID,0,
2007-05-10, 03:16:00,VALID,916.631,VALID,0,VALID,99.6569,VALID,-0.0679233,VALID,19.9976,VALID,77,VALID,0.174352,
2007-05-10, 03:17:00,VALID,916.628,VALID,0,VALID,99.5539,VALID,-0.0339617,VALID,19.9611,VALID,77,VALID,0.260074,
2007-05-10, 03:18:00,VALID,916.624,VALID,0,VALID,99.5539,VALID,-0.0679233,VALID,19.9394,VALID,77,VALID,0.312891,
2007-05-10, 03:19:00,VALID,916.622,VALID,0,VALID,99.4992,VALID,-0.0509425,VALID,19.8972,VALID,77,VALID,0.279535,
2007-05-10, 03:20:00,VALID,916.632,VALID,0,VALID,99.6722,VALID,-0.0679233,VALID,19.8872,VALID,77,VALID,0.323171,
2007-05-10, 03:21:00,VALID,916.63,VALID,0,VALID,99.8553,VALID,-0.0679233,VALID,19.8905,VALID,77,VALID,0.333629,
2007-05-10, 03:22:00,VALID,916.631,VALID,0,VALID,99.8235,VALID,-0.0509425,VALID,19.8805,VALID,49,VALID,0.320122,
2007-05-10, 03:23:00,VALID,916.631,VALID,0,VALID,99.5641,VALID,-0.0679233,VALID,19.8613,VALID,46,VALID,0.466025,
2007-05-10, 03:24:00,VALID,916.627,VALID,0,VALID,99.5883,VALID,-0.0339617,VALID,19.874,VALID,44,VALID,0.371875,
2007-05-10, 03:25:00,VALID,916.616,VALID,0,VALID,99.5794,VALID,-0.0169808,VALID,19.8705,VALID,42,VALID,0.531597,
2007-05-10, 03:26:00,VALID,916.628,VALID,0,VALID,99.4166,VALID,-0.0509425,VALID,19.8872,VALID,35,VALID,0.571429,
2007-05-10, 03:27:00,VALID,916.61,VALID,0,VALID,99.1953,VALID,-0.0509425,VALID,19.8965,VALID,22,VALID,0.571584,
2007-05-10, 03:28:00,VALID,916.607,VALID,0,VALID,98.8291,VALID,-0.0509425,VALID,19.9067,VALID,2,VALID,0.66673,
2007-05-10, 03:29:00,VALID,916.588,VALID,0,VALID,98.6536,VALID,-0.0509425,VALID,19.9097,VALID,20,VALID,0.484375,
2007-05-10, 03:30:00,VALID,916.56,VALID,0,VALID,98.4832,VALID,-0.0679233,VALID,19.9199,VALID,18,VALID,0.617914,
2007-05-10, 03:31:00,VALID,916.544,VALID,0,VALID,98.3764,VALID,0,VALID,19.9159,VALID,16,VALID,0.493608,
2007-05-10, 03:32:00,VALID,916.518,VALID,0,VALID,98.3357,VALID,-0.0509425,VALID,19.9262,VALID,16,VALID,0.220313,
2007-05-10, 03:33:00,VALID,916.497,VALID,0,VALID,98.3332,VALID,-0.0509425,VALID,19.9292,VALID,16,VALID,0.0848474,
2007-05-10, 03:34:00,VALID,916.479,VALID,0,VALID,98.3294,VALID,-0.0509425,VALID,19.9322,VALID,16,VALID,0.241862,
2007-05-10, 03:35:00,VALID,916.471,VALID,0,VALID,98.3739,VALID,-0.0679233,VALID,19.9327,VALID,16,VALID,0.231286,
2007-05-10, 03:36:00,VALID,916.46,VALID,0,VALID,98.4832,VALID,-0.0509425,VALID,19.9454,VALID,16,VALID,0.245094,
2007-05-10, 03:37:00,VALID,916.452,VALID,0,VALID,98.5087,VALID,-0.0339617,VALID,19.9454,VALID,16,VALID,0.184642,
2007-05-10, 03:38:00,VALID,916.448,VALID,0,VALID,98.6676,VALID,-0.0339617,VALID,19.9486,VALID,16,VALID,0.260298,